Aérodrome :
LOGIN :

S'inscrire | Disclaimer

   EN    FR    IT 

 










Légende :    VFR   VFR Marginal   IFR   IFR Intensif   IFR Très Intensif
Visi : 
Plafond : 
>= 8 km
>= 3000ft
5 à 8 km
1000 à 3000 ft
1500m à 5 km
500 à 1000 ft
800 à 1500m
200 à 500 ft
< 800m
< 200 ft
Symboles :   Orages  Brouillard  Fortes neiges  Fortes précipitations  Vent > 20 kt
SIGMETs :   Divers  Orages  Givrage  Turbulence  Onde Orograph.  Cendres Volcan.







- Altitude de l'aérodrome : 358 ft
- Voir les cartes d'approche


EGTC - Cranfield

DERNIER METAR :
  • 200850Z 22016KT 9999 FEW015 BKN020 19/16 Q1005

METARs EXPIRÉS :
  • 200820Z 21013KT 9999 BKN016 19/16 Q1005
  • 200750Z 21014KT 9999 BKN015 19/17 Q1005
  • 200720Z 21012KT 9999 BKN012 18/17 Q1004

TAF TAF EGTC
Valide du 20 à 09h jusqu'au 20 à 18h UTC


200756Z 2009/2018 20011KT 9999 SCT020
TEMPO 2009/2017 7000 SHRA
PROB40
TEMPO 2009/2012 BKN012
PROB30
TEMPO 2011/2016 4000 +SHRA
Pas de NOTAMs connus pour ce terrain.



MET'MAP, la Météo Aéronautique d'un coup d'oeil ! - Copyright ORBIFLY Décembre 2007 - Disclaimer

ORBIFLY MET'MAP TEAM :

Programmation & Développement : Alexandra Zaïnal
Conception & Développement : Baudouin d'Aumeries
Co-Programmation & Développement : Marc-Olivier Méhu
Soutien technique & logistique : Manuel Goepfert

Contact : metmap@orbifly.com




SOURCES & CREDITS :

   NOAA